�������l�o���
Date,Time,MP-1(��Sv/h),MP-2(��Sv/h),MP-3(��Sv/h),MP-4(��Sv/h),MP-5(��Sv/h),MP-6(��Sv/h),MP-7(��Sv/h),MP-8(��Sv/h),����,����(m/s),���J
2020/03/02,00:00,0.693,0.995,0.655,1.220,0.875,0.396,0.696,0.661,�k��,4.6,��
2020/03/02,00:10,0.691,0.996,0.653,1.218,0.873,0.397,0.696,0.660,�k�k��,5.2,��
2020/03/02,00:20,0.690,0.996,0.654,1.218,0.874,0.397,0.696,0.662,�k�k��,5.3,��
2020/03/02,00:30,0.691,0.995,0.655,1.216,0.874,0.397,0.697,0.662,�k�k��,4.3,��
2020/03/02,00:40,0.691,0.995,0.653,1.220,0.875,0.397,0.696,0.663,�k�k��,4.9,��
2020/03/02,00:50,0.692,0.995,0.655,1.219,0.874,0.398,0.698,0.661,�k�k��,4.4,��
2020/03/02,01:00,0.691,0.997,0.653,1.219,0.873,0.396,0.697,0.662,�k�k��,5.0,��
2020/03/02,01:10,0.691,0.996,0.653,1.219,0.872,0.399,0.698,0.663,�k�k��,5.3,��
2020/03/02,01:20,0.691,0.997,0.655,1.219,0.874,0.397,0.697,0.664,�k�k��,5.2,��
2020/03/02,01:30,0.692,0.994,0.654,1.220,0.874,0.397,0.695,0.662,�k�k��,5.1,��
2020/03/02,01:40,0.692,0.994,0.655,1.218,0.874,0.397,0.697,0.663,�k�k��,4.7,��
2020/03/02,01:50,0.691,0.995,0.654,1.219,0.877,0.397,0.696,0.662,�k�k��,4.5,��
2020/03/02,02:00,0.690,0.995,0.655,1.219,0.874,0.397,0.698,0.661,�k�k��,4.8,��
2020/03/02,02:10,0.690,0.994,0.655,1.218,0.873,0.397,0.698,0.662,�k�k��,5.0,��
2020/03/02,02:20,0.690,0.996,0.654,1.218,0.876,0.396,0.698,0.662,�k�k��,4.9,��
2020/03/02,02:30,0.691,0.996,0.654,1.219,0.875,0.397,0.697,0.662,�k�k��,4.3,��
2020/03/02,02:40,0.689,0.996,0.654,1.220,0.873,0.398,0.698,0.664,�k��,5.7,��
2020/03/02,02:50,0.690,0.994,0.655,1.219,0.874,0.399,0.698,0.663,�k��,5.5,��
2020/03/02,03:00,0.691,0.995,0.654,1.218,0.876,0.398,0.698,0.662,�k�k��,5.6,��
2020/03/02,03:10,0.692,0.995,0.655,1.219,0.873,0.399,0.696,0.662,�k�k��,5.6,��
2020/03/02,03:20,0.693,0.996,0.656,1.218,0.871,0.397,0.697,0.663,�k�k��,4.6,��
2020/03/02,03:30,0.690,0.993,0.656,1.218,0.873,0.398,0.698,0.662,�k�k��,5.2,��
2020/03/02,03:40,0.691,0.995,0.653,1.218,0.873,0.399,0.699,0.663,�k�k��,4.9,��
2020/03/02,03:50,0.691,0.996,0.655,1.218,0.874,0.398,0.697,0.664,�k�k��,5.3,��
2020/03/02,04:00,0.691,0.994,0.654,1.218,0.875,0.397,0.698,0.664,�k�k��,5.1,��
2020/03/02,04:10,0.690,0.994,0.655,1.220,0.872,0.398,0.698,0.662,�k�k��,5.3,��
2020/03/02,04:20,0.691,0.996,0.653,1.217,0.875,0.397,0.698,0.661,�k�k��,5.7,��
2020/03/02,04:30,0.692,0.996,0.653,1.219,0.873,0.399,0.699,0.662,�k�k��,4.7,��
2020/03/02,04:40,0.693,0.997,0.653,1.218,0.874,0.398,0.698,0.662,�k�k��,4.4,��
2020/03/02,04:50,0.692,0.997,0.654,1.219,0.875,0.398,0.695,0.662,�k��,3.7,��
2020/03/02,05:00,0.692,0.997,0.655,1.218,0.874,0.397,0.698,0.663,�k��,4.5,��
2020/03/02,05:10,0.691,0.992,0.654,1.220,0.875,0.398,0.698,0.663,�k�k��,4.6,��
2020/03/02,05:20,0.690,0.995,0.654,1.217,0.875,0.398,0.698,0.664,�k��,4.6,��
2020/03/02,05:30,0.693,0.993,0.655,1.219,0.875,0.398,0.697,0.662,�k��,4.0,��
2020/03/02,05:40,0.691,0.993,0.654,1.217,0.875,0.398,0.698,0.664,�k��,4.6,��
2020/03/02,05:50,0.693,0.994,0.657,1.220,0.876,0.398,0.699,0.663,�k��,5.0,��
2020/03/02,06:00,0.691,0.994,0.654,1.219,0.873,0.397,0.698,0.664,�k��,5.6,��
2020/03/02,06:10,0.692,0.995,0.654,1.219,0.876,0.397,0.698,0.661,�k��,5.9,��
2020/03/02,06:20,0.690,0.995,0.654,1.219,0.874,0.396,0.698,0.663,�k��,5.7,��
2020/03/02,06:30,0.691,0.997,0.654,1.220,0.875,0.399,0.698,0.663,�k��,5.9,��
2020/03/02,06:40,0.689,0.995,0.655,1.220,0.874,0.397,0.699,0.663,�k��,5.5,��
2020/03/02,06:50,0.691,0.995,0.653,1.221,0.876,0.398,0.697,0.661,�k��,5.3,��
2020/03/02,07:00,0.691,0.996,0.653,1.218,0.873,0.397,0.698,0.661,�k��,5.0,��
2020/03/02,07:10,0.693,0.993,0.654,1.219,0.873,0.398,0.697,0.663,�k��,5.2,��
2020/03/02,07:20,0.692,0.996,0.653,1.219,0.874,0.397,0.697,0.662,�k��,4.7,��
2020/03/02,07:30,0.694,0.995,0.653,1.220,0.876,0.397,0.698,0.663,�k��,5.0,�L
2020/03/02,07:40,0.691,0.994,0.655,1.219,0.875,0.398,0.699,0.662,�k��,4.6,�L
2020/03/02,07:50,0.691,0.996,0.652,1.220,0.876,0.400,0.699,0.664,�k��,3.7,�L
2020/03/02,08:00,0.693,0.996,0.655,1.219,0.875,0.398,0.698,0.662,�k�k��,3.6,�L
2020/03/02,08:10,0.693,0.995,0.654,1.220,0.875,0.400,0.699,0.663,�k�k��,4.6,�L
2020/03/02,08:20,0.693,0.992,0.651,1.222,0.874,0.399,0.700,0.663,�k�k��,4.9,�L
2020/03/02,08:30,0.693,0.993,0.655,1.218,0.874,0.401,0.697,0.662,�k�k��,4.8,�L
2020/03/02,08:40,0.691,0.992,0.653,1.219,0.871,0.399,0.698,0.662,�k��,5.1,�L
2020/03/02,08:50,0.690,0.990,0.655,1.218,0.872,0.399,0.699,0.662,�k�k��,5.1,�L
2020/03/02,09:00,0.690,0.990,0.654,1.219,0.872,0.401,0.699,0.663,�k��,3.9,�L
2020/03/02,09:10,0.691,0.984,0.653,1.218,0.870,0.400,0.698,0.662,�k��,3.9,�L
2020/03/02,09:20,0.689,0.982,0.655,1.216,0.867,0.400,0.696,0.661,�k��,4.9,�L
2020/03/02,09:30,0.691,0.981,0.653,1.215,0.868,0.400,0.697,0.661,�k�k��,4.3,�L
2020/03/02,09:40,0.688,0.979,0.652,1.214,0.866,0.401,0.696,0.659,�k�k��,4.0,�L
2020/03/02,09:50,0.688,0.976,0.649,1.214,0.866,0.399,0.695,0.661,�k�k��,3.4,�L
2020/03/02,10:00,0.687,0.977,0.643,1.209,0.863,0.398,0.695,0.661,�k�k��,3.7,�L
2020/03/02,10:10,0.686,0.977,0.648,1.210,0.863,0.399,0.695,0.661,�k�k��,4.2,�L
2020/03/02,10:20,0.684,0.976,0.648,1.211,0.863,0.397,0.697,0.660,�k�k��,5.1,�L
2020/03/02,10:30,0.686,0.973,0.649,1.212,0.862,0.398,0.695,0.659,�k�k��,4.4,�L
2020/03/02,10:40,0.686,0.974,0.649,1.209,0.863,0.399,0.695,0.660,�k�k��,4.3,�L
2020/03/02,10:50,0.685,0.973,0.650,1.209,0.864,0.397,0.695,0.659,�k�k��,5.1,�L
2020/03/02,11:00,0.684,0.975,0.648,1.209,0.862,0.397,0.695,0.661,�k�k��,4.8,�L
2020/03/02,11:10,0.684,0.976,0.648,1.210,0.862,0.396,0.697,0.660,�k�k��,4.5,�L
2020/03/02,11:20,0.685,0.978,0.648,1.210,0.860,0.396,0.695,0.659,�k�k��,4.1,�L
2020/03/02,11:30,0.684,0.974,0.650,1.208,0.862,0.396,0.696,0.660,�k�k��,4.0,�L
2020/03/02,11:40,0.685,0.975,0.647,1.210,0.863,0.396,0.695,0.661,�k�k��,4.0,�L
2020/03/02,11:50,0.685,0.977,0.648,1.208,0.862,0.396,0.695,0.659,�k�k��,3.9,�L
2020/03/02,12:00,0.685,0.976,0.648,1.209,0.862,0.396,0.695,0.661,�k,3.7,�L
2020/03/02,12:10,0.687,0.980,0.648,1.212,0.864,0.395,0.694,0.662,�k,3.6,�L
2020/03/02,12:20,0.685,0.977,0.649,1.208,0.861,0.396,0.694,0.661,�k�k��,3.7,�L
2020/03/02,12:30,0.684,0.975,0.648,1.208,0.862,0.396,0.695,0.660,�k�k��,4.1,�L
2020/03/02,12:40,0.685,0.976,0.649,1.211,0.864,0.397,0.695,0.661,�k,4.7,�L
2020/03/02,12:50,0.685,0.974,0.651,1.208,0.861,0.397,0.693,0.659,�k,3.7,�L
2020/03/02,13:00,0.684,0.976,0.651,1.209,0.863,0.398,0.692,0.659,�k�k��,2.3,�L
2020/03/02,13:10,0.685,0.977,0.647,1.210,0.863,0.398,0.695,0.662,�k,2.9,�L
2020/03/02,13:20,0.686,0.972,0.648,1.211,0.860,0.398,0.694,0.659,�k�k��,3.7,�L
2020/03/02,13:30,0.684,0.974,0.649,1.210,0.862,0.398,0.693,0.660,�k,3.5,�L
2020/03/02,13:40,0.686,0.973,0.649,1.206,0.862,0.398,0.693,0.659,�k,4.0,�L
2020/03/02,13:50,0.684,0.971,0.650,1.206,0.858,0.398,0.691,0.660,�k�k��,4.4,�L
2020/03/02,14:00,0.686,0.968,0.651,1.207,0.860,0.399,0.693,0.660,�k�k��,4.6,�L
2020/03/02,14:10,0.684,0.969,0.648,1.209,0.860,0.399,0.693,0.660,�k�k��,4.5,�L
2020/03/02,14:20,0.684,0.969,0.649,1.205,0.857,0.399,0.693,0.659,�k�k��,5.0,�L
2020/03/02,14:30,0.682,0.971,0.647,1.206,0.861,0.399,0.693,0.659,�k�k��,4.8,�L
2020/03/02,14:40,0.686,0.971,0.648,1.207,0.858,0.397,0.693,0.658,�k�k��,4.3,�L
2020/03/02,14:50,0.683,0.970,0.648,1.204,0.857,0.397,0.693,0.658,�k�k��,5.1,�L
2020/03/02,15:00,0.683,0.966,0.645,1.204,0.856,0.398,0.692,0.659,�k�k��,4.7,�L
2020/03/02,15:10,0.682,0.965,0.647,1.203,0.857,0.397,0.691,0.657,�k�k��,4.6,�L
2020/03/02,15:20,0.681,0.965,0.646,1.202,0.856,0.397,0.691,0.659,�k�k��,5.6,�L
2020/03/02,15:30,0.681,0.962,0.645,1.202,0.853,0.397,0.692,0.658,�k�k��,4.6,�L
2020/03/02,15:40,0.681,0.965,0.645,1.202,0.854,0.397,0.692,0.656,�k�k��,4.7,�L
2020/03/02,15:50,0.680,0.964,0.643,1.199,0.854,0.397,0.691,0.660,�k�k��,5.7,�L
2020/03/02,16:00,0.680,0.966,0.645,1.196,0.850,0.398,0.692,0.657,�k�k��,4.4,�L
2020/03/02,16:10,0.679,0.964,0.644,1.199,0.852,0.397,0.691,0.657,�k�k��,5.0,�L
2020/03/02,16:20,0.677,0.962,0.644,1.197,0.850,0.399,0.693,0.657,�k�k��,5.7,�L
2020/03/02,16:30,0.678,0.963,0.645,1.196,0.851,0.397,0.692,0.657,�k�k��,5.8,�L
2020/03/02,16:40,0.678,0.962,0.644,1.193,0.850,0.397,0.692,0.656,�k�k��,6.3,�L
2020/03/02,16:50,0.679,0.963,0.643,1.195,0.851,0.397,0.692,0.656,�k�k��,6.2,�L
2020/03/02,17:00,0.678,0.965,0.644,1.193,0.851,0.397,0.691,0.656,�k�k��,5.5,�L
2020/03/02,17:10,0.677,0.959,0.641,1.189,0.846,0.397,0.688,0.655,�k�k��,5.7,�L
2020/03/02,17:20,0.677,0.958,0.644,1.191,0.847,0.397,0.691,0.655,�k�k��,5.9,�L
2020/03/02,17:30,0.678,0.959,0.643,1.191,0.848,0.396,0.691,0.656,�k�k��,5.6,�L
2020/03/02,17:40,0.676,0.959,0.644,1.188,0.846,0.395,0.689,0.656,�k��,5.8,�L
2020/03/02,17:50,0.676,0.961,0.642,1.189,0.845,0.396,0.690,0.656,�k��,5.1,�L
2020/03/02,18:00,0.674,0.955,0.641,1.183,0.844,0.395,0.690,0.655,�k�k��,6.0,�L
2020/03/02,18:10,0.672,0.954,0.638,1.183,0.844,0.396,0.688,0.653,�k�k��,5.5,�L
2020/03/02,18:20,0.671,0.953,0.641,1.181,0.843,0.394,0.689,0.657,�k�k��,6.5,�L
2020/03/02,18:30,0.672,0.953,0.641,1.183,0.841,0.395,0.688,0.654,�k��,6.7,�L
2020/03/02,18:40,0.672,0.951,0.639,1.178,0.840,0.395,0.687,0.654,�k��,6.8,�L
2020/03/02,18:50,0.672,0.954,0.637,1.179,0.842,0.396,0.688,0.653,�k��,5.9,�L
2020/03/02,19:00,0.670,0.949,0.639,1.176,0.841,0.395,0.686,0.653,�k��,6.0,�L
2020/03/02,19:10,0.672,0.949,0.640,1.174,0.838,0.394,0.687,0.653,�k��,5.2,�L
2020/03/02,19:20,0.671,0.950,0.640,1.178,0.841,0.395,0.687,0.652,�k�k��,5.4,�L
2020/03/02,19:30,0.673,0.952,0.639,1.175,0.841,0.395,0.689,0.654,�k��,5.5,�L
2020/03/02,19:40,0.671,0.951,0.640,1.178,0.841,0.395,0.686,0.654,�k��,5.3,�L
2020/03/02,19:50,0.672,0.953,0.639,1.175,0.840,0.393,0.687,0.652,�k��,5.1,�L
2020/03/02,20:00,0.672,0.950,0.638,1.179,0.839,0.394,0.684,0.654,�k��,5.1,�L
2020/03/02,20:10,0.670,0.951,0.637,1.176,0.839,0.394,0.687,0.654,�k��,4.9,�L
2020/03/02,20:20,0.671,0.951,0.638,1.178,0.838,0.394,0.687,0.653,�k��,4.0,�L
2020/03/02,20:30,0.668,0.946,0.636,1.174,0.836,0.393,0.685,0.651,�k�k��,3.7,�L
2020/03/02,20:40,0.667,0.941,0.635,1.168,0.835,0.394,0.685,0.651,�k��,4.4,�L
2020/03/02,20:50,0.669,0.947,0.637,1.169,0.834,0.396,0.685,0.650,�k��,5.2,�L
2020/03/02,21:00,0.670,0.948,0.640,1.170,0.839,0.392,0.685,0.651,�k�k��,5.1,�L
2020/03/02,21:10,0.671,0.950,0.640,1.171,0.838,0.395,0.684,0.653,�k��,5.9,�L
2020/03/02,21:20,0.672,0.950,0.637,1.171,0.841,0.393,0.685,0.650,�k��,6.1,�L
2020/03/02,21:30,0.670,0.952,0.640,1.176,0.838,0.391,0.687,0.653,�k��,6.0,�L
2020/03/02,21:40,0.673,0.950,0.637,1.174,0.838,0.393,0.686,0.653,�k��,6.4,�L
2020/03/02,21:50,0.670,0.953,0.637,1.175,0.840,0.393,0.686,0.653,�k��,5.8,�L
2020/03/02,22:00,0.672,0.952,0.636,1.176,0.839,0.393,0.685,0.653,�k��,7.0,�L
2020/03/02,22:10,0.671,0.953,0.637,1.174,0.838,0.393,0.684,0.652,�k�k��,6.6,�L
2020/03/02,22:20,0.670,0.951,0.635,1.175,0.839,0.394,0.685,0.651,�k�k��,6.5,��
2020/03/02,22:30,0.671,0.950,0.637,1.176,0.839,0.393,0.684,0.650,�k�k��,6.3,��
2020/03/02,22:40,0.668,0.952,0.635,1.174,0.841,0.393,0.685,0.652,�k,5.1,��
2020/03/02,22:50,0.670,0.954,0.637,1.173,0.839,0.391,0.685,0.652,�k�k��,4.4,��
2020/03/02,23:00,0.669,0.952,0.636,1.174,0.840,0.391,0.684,0.654,�k�k��,4.1,��
2020/03/02,23:10,0.671,0.951,0.634,1.175,0.840,0.391,0.686,0.654,�k��,3.6,��
2020/03/02,23:20,0.670,0.954,0.636,1.174,0.838,0.391,0.684,0.652,�k��,4.1,��
2020/03/02,23:30,0.672,0.955,0.635,1.176,0.839,0.392,0.686,0.654,�k��,3.8,��
2020/03/02,23:40,0.669,0.953,0.636,1.176,0.839,0.391,0.687,0.652,�k�k��,4.0,�L
2020/03/02,23:50,0.671,0.954,0.635,1.177,0.840,0.391,0.684,0.651,�k�k��,4.0,��
